Flag for U.S.A. Weather past 2 weeks in Vevay, Indiana, U.S.A.

Now
61 °F

Light rain. Mostly cloudy.


Feels Like: 61 °F
Forecast: 61 / 68 °F
Wind: 7 mph from Southeast

Location: Cincinnati / Northern Kentucky International Airport

Current Time: Apr 19, 2015 at 10:54:18 AM

Latest Report: Apr 19, 2015 at 9:52 AM


Visibility: 8 mi

Pressure: 29.78 "Hg

Humidity: 67%

Dew point: 50 °F

Location of VevayLocation

Historic Weather in Vevay — Graph

°F

Vevay temperature yesterday

Maximum temperature yesterday: 78 °F (at 3:52 PM)
Minimum temperature yesterday: 51 °F (at 6:52 AM)
Average temperature yesterday: 67 °F

Past Weeks' High & Low Weather Summary

 TemperatureHumidityPressure
High78 °F (Apr 18, 3:52 PM)100% (Apr 7, 5:56 AM)30.36 "Hg (Apr 7, 5:56 AM)
Low35 °F (Apr 5, 3:52 AM)22% (Apr 5, 4:52 PM)29.67 "Hg (Apr 10, 4:52 AM)
Average60 °F61%30.07 "Hg
* Reported Apr 4 8:52 AM — Apr 19 8:52 AM, Vevay, Weather by CustomWeather, © 2015

Note: Actual official high and low records may vary slightly from our data, if they occured in-between our weather recording intervals... More about our weather records

Advertising

Vevay weather history for previous 24 hours

 ConditionsComfort  
Time TempWeatherWind HumidityBarometerVisibility
8:52 AM
Sun, Apr 19
61 °FLight rain. Mostly cloudy.9 mph60%29.80 "Hg10 mi
7:52 AM62 °FMostly cloudy.10 mph54%29.81 "Hg10 mi
6:52 AM63 °FMostly cloudy.9 mph52%29.80 "Hg10 mi
5:52 AM64 °FMostly cloudy.13 mph50%29.82 "Hg10 mi
4:52 AM64 °FPassing clouds.13 mph50%29.84 "Hg10 mi
3:52 AM65 °FPassing clouds.14 mph47%29.86 "Hg10 mi
2:52 AM65 °FPassing clouds.12 mph47%29.89 "Hg10 mi
1:52 AM67 °FPassing clouds.15 mph44%29.91 "Hg10 mi
12:52 AM66 °FPassing clouds.9 mph45%29.91 "Hg10 mi
11:52 PM
Sat, Apr 18
69 °FPassing clouds.13 mph42%29.92 "Hg10 mi
10:52 PM69 °FPartly cloudy.10 mph42%29.94 "Hg10 mi
9:52 PM70 °FPartly cloudy.8 mph41%29.95 "Hg10 mi
8:52 PM70 °FBroken clouds.8 mph42%29.95 "Hg10 mi
7:52 PM74 °FBroken clouds.12 mph37%29.94 "Hg10 mi
6:52 PM76 °FBroken clouds.15 mph32%29.93 "Hg10 mi
5:52 PM77 °FBroken clouds.14 mph33%29.95 "Hg10 mi
4:52 PM77 °FBroken clouds.12 mph32%29.96 "Hg10 mi
3:52 PM78 °FBroken clouds.14 mph32%29.98 "Hg10 mi
2:52 PM77 °FBroken clouds.10 mph33%29.99 "Hg10 mi
1:52 PM75 °FBroken clouds.5 mph34%30.02 "Hg10 mi
12:52 PM73 °FBroken clouds.8 mph40%30.03 "Hg10 mi
11:52 AM72 °FMostly cloudy.7 mph37%30.04 "Hg10 mi
10:52 AM69 °FPartly sunny.3 mph49%30.03 "Hg10 mi
Weather by CustomWeather, © 2015

See weather overviewHow to use our weather pages